{"data":{"norad_id":69958,"intl_designator":"2026-157R","name":"STARLINK-37964","alt_names":[],"object_type":"PAYLOAD","status":"ACTIVE","operator":null,"country":"US","launch_date":"2026-07-09","launch_site_code":"AFETR","launch_vehicle":null,"mission":null,"orbit_class":"UNKNOWN","rcs_meters":null,"size_class":null,"mass_kg":null,"dimensions":null,"purposes":["comms"],"wikipedia_slug":null,"has_3d_model":false,"image_url":null,"decayed_at":null,"tle_current":{"epoch":"2026-09-19T11:48:46.340064Z","epoch_age_seconds":104892,"freshness":"FRESH","line1":"1 69958U 26157R   26262.49220301  .00020284  00000+0  61014-3 0  9997","line2":"2 69958  53.1586 338.7679 0001088  97.5604 262.5522 15.34383650 11215","mean_motion":15.3438365,"eccentricity":0.0001088,"inclination_deg":53.1586,"raan_deg":338.7679,"arg_perigee_deg":97.5604,"mean_anomaly_deg":262.5522,"bstar":0.00061014,"rev_number":1121,"period_min":93.848758099058,"perigee_km":462.00754757884,"apogee_km":463.49612498962,"semimajor_km":6840.8888362842,"source":"CELESTRAK","updated_at":"2026-09-20T09:00:44.301983Z"}}}